TimeEST,TemperatureF,Dew PointF,Humidity,Sea Level PressureIn,VisibilityMPH,Wind Direction,Wind SpeedMPH,Gust SpeedMPH,PrecipitationIn,Events,Conditions,WindDirDegrees,DateUTC
12:00 AM,76,64,58,29.92,,NNE,5.8,,,,,30,2012-12-02 14:00:00
12:00 AM,77.0,64.4,65,29.92,-9999.0,NNE,5.8,-,N/A,,Unknown,30,2012-12-02 14:00:00
12:30 AM,75.2,64.4,69,29.92,-9999.0,NE,6.9,-,N/A,,Unknown,40,2012-12-02 14:30:00
1:00 AM,75.2,64.4,69,29.89,-9999.0,North,5.8,-,N/A,,Unknown,10,2012-12-02 15:00:00
1:30 AM,75.2,64.4,69,29.89,-9999.0,North,5.8,-,N/A,,Unknown,350,2012-12-02 15:30:00
2:00 AM,75.2,64.4,69,29.89,-9999.0,North,5.8,-,N/A,,Unknown,10,2012-12-02 16:00:00
2:30 AM,73.4,64.4,73,29.89,-9999.0,NW,4.6,-,N/A,,Unknown,310,2012-12-02 16:30:00
3:00 AM,74,64,62,29.87,,North,5.8,,,,,0,2012-12-02 17:00:00
3:00 AM,73.4,64.4,73,29.86,-9999.0,North,5.8,-,N/A,,Unknown,360,2012-12-02 17:00:00
3:30 AM,73.4,64.4,73,29.86,-9999.0,NNE,8.1,-,N/A,,Unknown,30,2012-12-02 17:30:00
4:00 AM,75.2,64.4,69,29.86,-9999.0,NNE,5.8,-,N/A,,Unknown,20,2012-12-02 18:00:00
4:30 AM,73.4,64.4,73,29.86,-9999.0,Calm,Calm,-,N/A,,Unknown,0,2012-12-02 18:30:00
5:00 AM,73.4,64.4,73,29.86,-9999.0,Calm,Calm,-,N/A,,Unknown,0,2012-12-02 19:00:00
5:30 AM,73.4,64.4,73,29.89,-9999.0,WNW,4.6,-,N/A,,Unknown,300,2012-12-02 19:30:00
6:00 AM,74,64,65,29.89,,WNW,4.6,,,,,300,2012-12-02 20:00:00
6:00 AM,75.2,64.4,69,29.89,-9999.0,WNW,4.6,-,N/A,,Unknown,300,2012-12-02 20:00:00
6:30 AM,75.2,64.4,69,29.89,-9999.0,WNW,3.5,-,N/A,,Unknown,300,2012-12-02 20:30:00
7:00 AM,77.0,64.4,65,29.89,-9999.0,NW,3.5,-,N/A,,Unknown,320,2012-12-02 21:00:00
7:30 AM,78.8,64.4,61,29.89,-9999.0,WNW,5.8,-,N/A,,Unknown,290,2012-12-02 21:30:00
8:00 AM,78.8,62.6,57,29.92,-9999.0,WNW,6.9,-,N/A,,Unknown,300,2012-12-02 22:00:00
8:30 AM,78.8,64.4,61,29.92,-9999.0,WNW,4.6,-,N/A,,Unknown,300,2012-12-02 22:30:00
9:00 AM,80,65,50,29.91,,NW,5.8,,,,,310,2012-12-02 23:00:00
9:00 AM,80.6,64.4,58,29.92,-9999.0,NW,5.8,-,N/A,,Unknown,310,2012-12-02 23:00:00
9:30 AM,80.6,62.6,54,29.92,-9999.0,NW,8.1,-,N/A,,Unknown,310,2012-12-02 23:30:00
10:00 AM,80.6,64.4,58,29.92,-9999.0,NW,8.1,-,N/A,,Unknown,310,2012-12-03 00:00:00
10:30 AM,80.6,64.4,58,29.92,-9999.0,NW,8.1,-,N/A,,Unknown,310,2012-12-03 00:30:00
11:00 AM,80.6,62.6,54,29.92,-9999.0,NNW,9.2,-,N/A,,Unknown,330,2012-12-03 01:00:00
11:30 AM,82.4,64.4,54,29.89,-9999.0,North,4.6,-,N/A,,Unknown,350,2012-12-03 01:30:00
12:00 PM,85,63,37,29.89,,ESE,11.5,,,,,110,2012-12-03 02:00:00
12:00 PM,86.0,62.6,45,29.89,-9999.0,ESE,11.5,-,N/A,,Unknown,110,2012-12-03 02:00:00
12:30 PM,84.2,64.4,51,29.89,-9999.0,ESE,9.2,-,N/A,,Unknown,110,2012-12-03 02:30:00
1:00 PM,84.2,62.6,48,29.86,-9999.0,ESE,11.5,-,N/A,,Unknown,120,2012-12-03 03:00:00
1:30 PM,86.0,66.2,51,29.86,-9999.0,ESE,9.2,-,N/A,,Unknown,110,2012-12-03 03:30:00
2:00 PM,84.2,64.4,51,29.86,-9999.0,ESE,11.5,-,N/A,,Unknown,110,2012-12-03 04:00:00
2:30 PM,86.0,59.0,40,29.83,-9999.0,WNW,8.1,-,N/A,,Unknown,300,2012-12-03 04:30:00
3:00 PM,86,63,36,29.83,,NNW,5.8,,,,,340,2012-12-03 05:00:00
3:00 PM,86.0,62.6,45,29.83,-9999.0,NNW,5.8,-,N/A,,Unknown,340,2012-12-03 05:00:00
3:30 PM,86.0,64.4,48,29.80,-9999.0,NW,10.4,-,N/A,,Unknown,320,2012-12-03 05:30:00
4:00 PM,86.0,64.4,48,29.80,-9999.0,NW,10.4,-,N/A,,Unknown,320,2012-12-03 06:00:00
4:30 PM,84.2,64.4,51,29.80,-9999.0,NNW,10.4,-,N/A,,Unknown,330,2012-12-03 06:30:00
5:00 PM,82.4,62.6,51,29.80,-9999.0,NNW,8.1,-,N/A,,Unknown,340,2012-12-03 07:00:00
5:30 PM,80.6,64.4,58,29.83,-9999.0,NE,12.7,-,N/A,,Unknown,50,2012-12-03 07:30:00
6:00 PM,81,64,46,29.82,,NNE,11.5,,,,,30,2012-12-03 08:00:00
6:00 PM,80.6,64.4,58,29.83,-9999.0,NNE,11.5,-,N/A,,Unknown,30,2012-12-03 08:00:00
6:30 PM,78.8,62.6,57,29.83,-9999.0,NNE,11.5,-,N/A,,Unknown,30,2012-12-03 08:30:00
7:00 PM,78.8,62.6,57,29.83,-9999.0,North,10.4,-,N/A,,Unknown,10,2012-12-03 09:00:00
7:30 PM,78.8,62.6,57,29.83,-9999.0,North,11.5,-,N/A,,Unknown,360,2012-12-03 09:30:00
8:00 PM,78.8,62.6,57,29.86,-9999.0,North,11.5,-,N/A,,Unknown,360,2012-12-03 10:00:00
8:30 PM,78.8,64.4,61,29.86,-9999.0,North,11.5,-,N/A,,Unknown,360,2012-12-03 10:30:00
9:00 PM,78,64,53,29.86,,North,11.5,,,,,0,2012-12-03 11:00:00
9:00 PM,77.0,64.4,65,29.86,-9999.0,North,11.5,-,N/A,,Unknown,360,2012-12-03 11:00:00
9:30 PM,77.0,64.4,65,29.86,-9999.0,North,11.5,-,N/A,,Unknown,360,2012-12-03 11:30:00
10:00 PM,77.0,64.4,65,29.86,-9999.0,North,9.2,-,N/A,,Unknown,350,2012-12-03 12:00:00
10:30 PM,77.0,64.4,65,29.89,-9999.0,North,9.2,-,N/A,,Unknown,350,2012-12-03 12:30:00
11:00 PM,77.0,64.4,65,29.86,-9999.0,North,8.1,-,N/A,,Unknown,360,2012-12-03 13:00:00
11:30 PM,77.0,64.4,65,29.86,-9999.0,North,8.1,-,N/A,,Unknown,350,2012-12-03 13:30:00